Regional Weather Roundup
Issued by NWS New Orleans/Baton Rouge, LA

Home | Current Version | Previous Version | Text Only | Print | Product List | Glossary On
Versions: 1 2 3 4 5 6 7 8 9 10 11 12 13 14 15 16 17 18 19 20 21 22 23 24 25 26 27 28 29 30 31 32 33 34 35 36 37 38 39 40 41 42 43 44 45 46 47 48 49 50
316
ASUS44 KLIX 240310
RWRLIX
NEW ORLEANS REGIONAL WEATHER ROUNDUP
NATIONAL WEATHER SERVICE NEW ORLEANS LA
1000 PM CDT THU OCT 23 2014

NOTE: "FAIR" INDICATES FEW OR NO CLOUDS BELOW 12,000 FEET WITH NO
      SIGNIFICANT WEATHER AND/OR OBSTRUCTIONS TO VISIBILITY.
      SKY/WX - SKY CONDITION AND SIGNIFICANT WEATHER.
      TMP - AIR TEMPERATURE.     DP    - DEWPOINT TEMPERATURE.
      RH  - RELATIVE HUMIDITY.   PRES  - PRESSURE.
      HI  - HEAT INDEX.          WCI   - WIND CHILL INDEX.

*  THESE STATIONS ARE NOT NWS OR FAA STATIONS AND ARE NOT UNDER
   NWS QUALITY CONTROL.

LAZ038-040-048-061>063-065>067-069-240400-
SOUTHEAST LOUISIANA

CITY           SKY/WX    TMP DP  RH WIND       PRES   REMARKS
N.O. AUDUBON     N/A     65  55  69 MISG        N/A
N.O. INTL ARPT MOCLDY    63  52  67 NW3       30.08R
N.O. LAKEFRONT MOCLDY    68  52  56 N9        30.09R
N.O. DOWNTOWN*   N/A     70  48  46 CALM      30.09S
SLIDELL        MOCLDY    60  54  80 CALM      30.08S
BATON ROUGE    PTCLDY    58  52  80 VRB3      30.10S
BOOTHVILLE     MOCLDY    69  53  56 CALM      30.07S
BELLE CHASSE   CLOUDY    58  53  84 CALM      30.08R
BOGALUSA*        N/A     56  49  77 CALM      30.10S
NEW ROADS*       N/A     56  51  84 CALM      30.11S
GONZALES*        N/A     55  55 100 N3        30.09R
HAMMOND*       PTCLDY    59  50  72 N3        30.11R
HOUMA*         MOCLDY    58  53  84 CALM      30.08S
PORT FOURCHON* CLEAR     68  59  73 E6        30.10F

$$

MSZ070-080>082-240400-
SOUTHERN MISSISSIPPI

CITY           SKY/WX    TMP DP  RH WIND       PRES   REMARKS
MCCOMB         PTCLDY    59  49  69 N6        30.11S
GULFPORT       CLOUDY    64  49  57 N5        30.07S
BILOXI         CLOUDY    65  48  54 N5        30.08R
PASCAGOULA     CLOUDY    54  52  93 CALM      30.08R

$$

COASTAL OBSERVATIONS
LAKE AND NEARSHORE STATIONS

STATION/POSITION TIME  TEMP    WIND        PRES    WAVE
                       AIR SEA DIR/SP/G            HT/PER
                 (UTC) (F)     (DEG/KT/KT) (MB)    (FT/S)
PASCAGOULA       0300   64     340/  7/  9 1017.9
WAVELAND YACHT   0300   67      20/  6/  8 1017.8
GRAND ISLE       0300   69 73   70/  3/  5 1019.0
SOUTHWEST PASS   0300   70 81              1018.1
NEW CANAL        0300   68 71     CALM     1019.0
SHELL BEACH      0300   68 69  230/  2/  3 1018.5

OFFSHORE STATIONS

STATION/POSITION TIME  TEMP    WIND        PRES    WAVE
                       AIR SEA DIR/SP/G            HT/PER
                 (UTC) (F)     (DEG/KT/KT) (MB)    (FT/S)
64 S DAUPHIN ISL 0224   71 78   60/ 10/ 14 1018.4    3/ 6

$$




USA.gov is the U.S. government's official web portal to all federal, state and local government web resources and services.